Chamberlain, SD

12:50 PM CDT on October 23, 2017 (GMT -0500)
Chamberlain

Weather History for K9V9 - October, 2011

Change the Weather History Date:

Monday, October 10, 2011

  Actual Average Record
Temperature  
Mean Temperature 61 °F -  
Max Temperature 72 °F 63 °F 88 °F (2003)
Min Temperature 50 °F 37 °F 25 °F (2012)
Degree Days  
Heating Degree Days 4    
Growing Degree Days 11 (Base 50)    
Moisture  
Dew Point 47 °F    
Average Humidity 72    
Maximum Humidity 97    
Minimum Humidity 34    
Precipitation  
Precipitation 0.00 in - - ()
Sea Level Pressure  
Sea Level Pressure 29.87 in    
Wind  
Wind Speed 9 mph (SW)    
Max Wind Speed 21 mph    
Max Gust Speed 24 mph    
Averages and records for this station are not official NWS values.
T = Trace of Precipitation, MM = Missing Value Source: NWS Daily Summary

Daily Weather History Graph

Daily Weather History Graph

Search for Another Location

Airport or City:

Trip Planner

Search our weather history database for the weather conditions in past years. The results will help you decide how hot, cold, wet, or windy it might be!

Date:

Astronomy

Oct. 10, 2011 Rise Set
Actual Time 7:45 AM CDT 7:02 PM CDT
Civil Twilight 7:16 AM CDT 7:31 PM CDT
Nautical Twilight 6:43 AM CDT 8:04 PM CDT
Astronomical Twilight 6:09 AM CDT 8:37 PM CDT
Moon 6:06 PM CDT (10/10) 6:27 AM CDT (10/10)
Length of Visible Light 12h 14m
Length of Day
11h 17m
Waxing Gibbous, 98% of the Moon is Illuminated
Oct 10
Waxing Gibbous
Oct 11
Full
Oct 19
Last Quarter
Oct 26
New
Nov 2
First Quarter

Hourly Weather History & Observations

Time (CDT) Temp. Dew Point Humidity Pressure Visibility Wind Dir Wind Speed Gust Speed Precip Events Conditions
12:52 AM 52.0 °F 51.1 °F 97% 29.96 in - West 5.8 mph - N/A   Unknown
1:52 AM 52.0 °F 51.1 °F 97% 29.97 in - West 8.1 mph - N/A   Unknown
2:52 AM 52.0 °F 50.0 °F 93% 29.97 in - West 8.1 mph - N/A   Unknown
3:52 AM 51.1 °F 50.0 °F 96% 29.96 in - SSW 5.8 mph - N/A   Unknown
4:52 AM 51.1 °F 50.0 °F 96% 29.95 in - SW 5.8 mph - N/A   Unknown
5:52 AM 50.0 °F 48.9 °F 96% 29.95 in - South 6.9 mph - N/A   Unknown
6:52 AM 51.1 °F 50.0 °F 96% 29.94 in - SW 4.6 mph - N/A   Unknown
7:52 AM 52.0 °F 50.0 °F 93% 29.94 in - WSW 5.8 mph - N/A   Unknown
8:52 AM 52.0 °F 51.1 °F 97% 29.93 in - SSW 5.8 mph - N/A   Unknown
9:52 AM 55.0 °F 52.0 °F 89% 29.92 in - SSW 8.1 mph - N/A   Unknown
10:52 AM 55.9 °F 52.0 °F 87% 29.91 in - SSW 11.5 mph - N/A   Unknown
11:52 AM 60.1 °F 50.0 °F 69% 29.88 in - SSW 18.4 mph - N/A   Unknown
12:52 PM 64.0 °F 51.1 °F 63% 29.86 in - SSW 13.8 mph - N/A   Unknown
1:52 PM 66.9 °F 48.0 °F 51% 29.83 in - SW 18.4 mph - N/A   Unknown
2:52 PM 69.1 °F 46.9 °F 45% 29.81 in - SW 19.6 mph 24.2 mph N/A   Unknown
3:52 PM 72.0 °F 44.1 °F 37% 29.78 in - WSW 20.7 mph - N/A   Unknown
4:52 PM 71.1 °F 41.0 °F 34% 29.77 in - WSW 16.1 mph - N/A   Unknown
5:52 PM 71.1 °F 41.0 °F 34% 29.77 in - WSW 11.5 mph - N/A   Unknown
6:52 PM 64.0 °F 43.0 °F 46% 29.78 in - WSW 6.9 mph - N/A   Unknown
7:52 PM 57.0 °F 44.1 °F 62% 29.80 in - SW 6.9 mph - N/A   Unknown
8:52 PM 55.9 °F 42.1 °F 60% 29.81 in - West 3.5 mph - N/A   Unknown
9:52 PM 55.0 °F 43.0 °F 64% 29.82 in - South 3.5 mph - N/A   Unknown
10:52 PM 54.0 °F 43.0 °F 66% 29.82 in - SSW 6.9 mph - N/A   Unknown
11:52 PM 51.1 °F 42.1 °F 71% 29.81 in - SW 5.8 mph - N/A   Unknown